Regional Weather Roundup
Issued by NWS

Home | Current Version | Previous Version | Text Only | Print | Product List | Glossary Off
Versions: 1 2 3 4 5 6 7 8 9 10 11 12 13 14 15 16 17 18 19 20 21 22 23 24 25 26 27 28 29 30 31 32 33 34 35 36 37 38 39 40 41 42 43 44 45 46 47 48 49 50

000
ASUS43 KDTX 271201
RWRMI
MICHIGAN HOURLY REGIONAL WEATHER ROUNDUP
NATIONAL WEATHER SERVICE DETROIT/PONTIAC MI
800 AM EDT WED AUG 27 2014

NOTE: "FAIR" INDICATES FEW OR NO CLOUDS BELOW 12,000 FEET WITH NO
SIGNIFICANT WEATHER AND/OR OBSTRUCTION TO VISIBILITY.

MIZ047>049-052>055-059>063-066>070-074>076-081>083-271300-
SOUTHEAST LOWER MICHIGAN

CITY           SKY/WX    TMP DP  RH WIND       PRES   REMARKS
ADRIAN         CLOUDY    64  63  96 NE6       30.13R FOG
6HR MIN TEMP:  62; 6HR MAX TEMP:  70;

ALMA           PTSUNNY   59  57  94 CALM      30.16R
ANN ARBOR      CLOUDY    67  62  84 E8        30.11R
BAD AXE        MOSUNNY   58  57  99 CALM      30.14S
6HR MIN TEMP:  54; 6HR MAX TEMP:  64;

CARO           PTSUNNY   61  58  91 CALM      30.14R
DETROIT CITY   CLOUDY    67  59  75 CALM      30.12S
6HR MIN TEMP:  67; 6HR MAX TEMP:  73;

DETROIT        CLOUDY    67  62  84 N5        30.12R
6HR MIN TEMP:  66; 6HR MAX TEMP:  70;

FLINT          MOSUNNY   66  57  72 NE8       30.14R
6HR MIN TEMP:  65; 6HR MAX TEMP:  70;

GROSSE ILE     CLOUDY    68  63  83 NE9       30.10S
HILLSDALE      CLOUDY    63  63 100 CALM      30.13S FOG
6HR MIN TEMP:  60; 6HR MAX TEMP:  70;

HOWELL         CLOUDY    63  62  97 CALM      30.14R
6HR MIN TEMP:  63; 6HR MAX TEMP:  65;


CITY           SKY/WX    TMP DP  RH WIND       PRES   REMARKS
JACKSON        CLOUDY    63  62  97 N5        30.14R FOG
6HR MIN TEMP:  61; 6HR MAX TEMP:  66;

LAMBERTVILLE   CLOUDY    68  64  88 CALM      30.11S FOG
LANSING        PTSUNNY   62  59  90 NW7       30.15R
6HR MIN TEMP:  60; 6HR MAX TEMP:  64;

LAPEER         CLOUDY    62  57  85 CALM      30.14R
MASON          CLOUDY    63  62  97 N3        30.14R FOG
MONROE         PTSUNNY   68  64  88 NE3       30.09S
MT. CLEMENS    PTSUNNY   64  57  78 N6        30.11R
6HR MIN TEMP:  64; 6HR MAX TEMP:  69;

PONTIAC        PTSUNNY   63  58  83 NE7       30.12R
6HR MIN TEMP:  63; 6HR MAX TEMP:  69;

PORT HOPE        N/A     65  55  70 CALM      30.11S
6HR MIN TEMP:  62; 6HR MAX TEMP:  65;

PORT HURON     PTSUNNY   61  59  94 CALM      30.12S
TRI CITIES     CLOUDY    63  57  81 N6        30.15R
6HR MIN TEMP:  63; 6HR MAX TEMP:  68;

TROY           MOSUNNY   66  59  78 N3        30.14R
SAGINAW HB     MOSUNNY   61  61 100 CALM      30.14R
$$
MIZ043>046-050>051-056>058-064>065-071>073-077>080-271300-
SOUTHWEST LOWER MICHIGAN

CITY           SKY/WX    TMP DP  RH WIND       PRES   REMARKS
BATTLE CREEK   MOCLDY    62  58  86 N5        30.14S
6HR MIN TEMP:  61; 6HR MAX TEMP:  65;

BENTON HARBOR  MOCLDY    60  59  96 CALM      30.14R
6HR MIN TEMP:  57; 6HR MAX TEMP:  61;

BIG RAPIDS     CLOUDY    58  58 100 CALM      30.17R
6HR MIN TEMP:  54; 6HR MAX TEMP:  58;

COLDWATER      CLOUDY    64  63  96 N6        30.13S
6HR MIN TEMP:  62; 6HR MAX TEMP:  70;

FREMONT        FAIR      59  57  93 NE6       30.16R
HOLLAND        CLOUDY    63  59  87 CALM      30.16R
6HR MIN TEMP:  58; 6HR MAX TEMP:  63;

GRAND RAPIDS   MOCLDY    62  62 100 N5        30.15R
6HR MIN TEMP:  59; 6HR MAX TEMP:  64;

IONIA          FAIR      60  59  96 NE6       30.14S
KALAMAZOO      PTCLDY    61  59  93 N3        30.14S
6HR MIN TEMP:  60; 6HR MAX TEMP:  65;

LUDINGTON      PTCLDY    57  56  95 CALM      30.16S
6HR MIN TEMP:  55; 6HR MAX TEMP:  59;

MARSHALL       MOSUNNY   60  59  96 NW5       30.13R
MOUNT PLEASANT CLOUDY    57  56  97 N3        30.16R
6HR MIN TEMP:  55; 6HR MAX TEMP:  61;

MUSKEGON       CLOUDY    63  58  83 CALM      30.16R
6HR MIN TEMP:  59; 6HR MAX TEMP:  63;

SOUTH HAVEN    MOCLDY    60  60  98 CALM      30.14S
$$
MIZ016>042-271300-
NORTHERN LOWER MICHIGAN

CITY           SKY/WX    TMP DP  RH WIND       PRES   REMARKS
ALPENA         CLOUDY    54  52  93 W6        30.13S
6HR MIN TEMP:  50; 6HR MAX TEMP:  54;

BEAVER ISLAND  LGT RAIN  58  54  86 CALM      30.16S
6HR MIN TEMP:  57; 6HR MAX TEMP:  60;

BELLAIRE       PTSUNNY   56  55  95 CALM      30.16S
6HR MIN TEMP:  53; 6HR MAX TEMP:  58;

CADILLAC       MOCLDY    56  56 100 CALM      30.16R
CHARLEVOIX     CLOUDY    61  55  79 CALM      30.17F
6HR MIN TEMP:  56; 6HR MAX TEMP:  61;

FRANKFORT      CLOUDY    58  55  87 CALM      30.15F
GAYLORD        PTSUNNY   52  50  93 CALM      30.16R
6HR MIN TEMP:  52; 6HR MAX TEMP:  56;

GRAYLING       PTSUNNY   56  55  97 CALM      30.17S
6HR MIN TEMP:  54; 6HR MAX TEMP:  56;

HARBOR SPRINGS PTSUNNY   57  53  89 CALM      30.15S
HOUGHTON LAKE  CLOUDY    55  53  93 CALM      30.16F
6HR MIN TEMP:  50; 6HR MAX TEMP:  55;

MANISTEE       MOCLDY    57  54  88 CALM      30.17S
OSCODA         PTSUNNY   54  53  95 W3        30.15R
PELLSTON       CLOUDY    53  52  96 CALM      30.15R
6HR MIN TEMP:  48; 6HR MAX TEMP:  53;

TRAVERSE CITY  MOCLDY    59  54  83 CALM      30.15S
6HR MIN TEMP:  57; 6HR MAX TEMP:  63;

$$
MIZ007>008-015-271300-
EASTERN UPPER MICHIGAN

CITY           SKY/WX    TMP DP  RH WIND       PRES   REMARKS
KINROSS        PTSUNNY   50  50 100 W5        30.14R
6HR MIN TEMP:  48; 6HR MAX TEMP:  52;

MACKINAC ISLAN PTSUNNY   55  52  88 NW7       30.14S
6HR MIN TEMP:  53; 6HR MAX TEMP:  55;

NEWBERRY       CLOUDY    51  50  97 W6        30.14S
S. S. MARIE    CLOUDY    55  52  89 SW6       30.13R
6HR MIN TEMP:  49; 6HR MAX TEMP:  55; 6HR PCP: TRACE;

$$
MIZ004>006-011>014-085-271300-
CENTRAL UPPER MICHIGAN

CITY           SKY/WX    TMP DP  RH WIND       PRES   REMARKS
MANISTIQUE     LGT RAIN  52  51  96 NW5       30.15R
ESCANABA       CLOUDY    54  48  82 CALM      30.16S
6HR MIN TEMP:  50; 6HR MAX TEMP:  54; 6HR PCP:  0.04;

MENOMINEE      CLOUDY    55  52  88 N6        30.16R
6HR MIN TEMP:  54; 6HR MAX TEMP:  57; 6HR PCP:  0.03;

SAWYER-GWINN   MOCLDY    50  48  93 CALM      30.17S
$$
MIZ001>003-009>011-084-271300-
WESTERN UPPER MICHIGAN

CITY           SKY/WX    TMP DP  RH WIND       PRES   REMARKS
IRON MOUNTAIN  MOCLDY    54  52  93 W3        30.17R
6HR MIN TEMP:  50; 6HR MAX TEMP:  55; 6HR PCP: TRACE;

HOUGHTON       PTCLDY    51  48  89 NW5       30.17R
6HR MIN TEMP:  51; 6HR MAX TEMP:  57; 6HR PCP: TRACE;

COPPER HARBOR    N/A     55  49  80 VRB3      30.16R
6HR MIN TEMP:  55; 6HR MAX TEMP:  58; 6HR PCP:  0.01;

$$

ABBREVIATIONS USED IN REMARKS
   TC - TEMPERATURE IN CELSIUS
  WCI - WIND CHILL INDEX
   HX - HEAT INDEX
  VSB - VISIBILITY




USA.gov is the U.S. government's official web portal to all federal, state and local government web resources and services.